Location: Newark
(28.2239°N, 112.9771°E)
Time: 22:24:23
(UTC+00:00)

N. Korean satellite - Visible Passes

Search period start: 16 October 2019 00:00
Search period end: 26 October 2019 00:00
Orbit: 455 x 508 km, 97.2° (Epoch: 15 October)

Date Brightness Start Highest point End Pass type
(mag) Time Alt. Az. Time Alt. Az. Time Alt. Az.
16 Oct 10.7 10:48:46 10° W 10:49:03 10° W 10:49:19 10° W visible
17 Oct 9.4 10:20:51 10° SSW 10:23:40 24° W 10:26:28 10° NW visible
17 Oct 8.4 21:53:03 10° NNE 21:56:27 37° E 21:59:52 10° SSE visible
18 Oct 10.0 21:28:43 10° NE 21:31:06 17° E 21:33:30 10° SE visible
20 Oct 10.2 10:39:30 10° SW 10:41:12 13° W 10:42:54 10° WNW visible
21 Oct 8.8 10:12:45 10° SSW 10:15:48 31° W 10:18:53 10° NW visible
21 Oct 8.9 21:45:25 10° NE 21:48:39 29° E 21:51:54 10° SSE visible
22 Oct 10.3 21:21:28 10° ENE 21:23:16 13° E 21:25:05 10° SE visible
24 Oct 9.9 10:31:00 10° SW 10:33:18 17° W 10:35:38 10° NW visible
24 Oct 7.5 22:02:31 10° NNE 22:06:08 55° E 22:09:46 10° S visible
25 Oct 9.4 21:37:48 10° NE 21:40:48 23° E 21:43:48 10° SSE visible
